This demonstration page uses our WeatherBlox Daily Observations layout. Learn more.

Left ArrowRight Arrow

38.20091, -84.87328

Hourly Observations for July 26, 2021

Temp ( °F °C ) Dew Point ( °F °C ) Humidity (%) Winds ( mph kmh ) Pressure ( in mb ) Visibility ( mi km ) Precip ( " mm )
12:53 am 00:53 Clear 76 24.4 74 23.3 94 94 Calm 29.93 1014 8 13 0.00 0.00
1:53 am 01:53 Cloudy 77 25 75 23.9 94 94 Calm 29.93 1014 10 16 0.00 0.00
2:53 am 02:53 Clear 76 24.4 74 23.3 94 94 Calm 29.93 1013 8 13 0.00 0.00
3:53 am 03:53 Clear with Mist and Fog 74 23.3 73 22.8 97 97 Calm 29.92 1013 5 8 0.00 0.00
4:53 am 04:53 Clear 74 23.3 72 22.2 94 94 Calm 29.93 1013 7 11 0.00 0.00
5:53 am 05:53 Partly Cloudy with Mist and Fog 74 23.3 73 22.8 97 97 Calm 29.94 1014 5 8 0.00 0.00
6:53 am 06:53 Partly Cloudy with Mist and Fog 73 22.8 72 22.2 96 96 Calm 29.95 1014 4 6 0.00 0.00
7:53 am 07:53 Partly Cloudy with Mist and Fog 75 23.9 73 22.8 94 94 Calm 29.96 1015 6 10 0.00 0.00
8:53 am 08:53 Mostly Sunny 79 26.1 75 23.9 88 88 Calm 29.97 1015 8 13 0.00 0.00
9:53 am 09:53 Sunny 84 28.9 76 24.4 77 77 NNE 6 9 29.97 1015 10 16 0.00 0.00
10:53 am 10:53 Sunny 86 30 75 23.9 70 70 Calm 29.96 1015 10 16 0.00 0.00
11:53 am 11:53 Mostly Cloudy 88 31.1 74 23.3 63 63 N 3 6 29.98 1015 10 16 0.00 0.00
12:53 pm 12:53 Mostly Cloudy 90 32.2 73 22.8 58 58 N 5 7 29.97 1015 10 16 0.00 0.00
1:53 pm 13:53 Partly Cloudy 91 32.8 70 21.1 50 50 NNW 8 13 29.96 1015 10 16 0.00 0.00
2:53 pm 14:53 Partly Cloudy 91 32.8 70 21.1 50 50 NNE 7 11 29.95 1014 10 16 0.00 0.00
3:53 pm 15:53 Sunny 93 33.9 67 19.4 42 42 N 9 15 29.95 1014 10 16 0.00 0.00
4:53 pm 16:53 Sunny 92 33.3 67 19.4 44 44 N 8 13 29.95 1014 10 16 0.00 0.00
5:53 pm 17:53 Sunny 92 33.3 67 19.4 44 44 NNW 12 19 29.93 1014 10 16 0.00 0.00
6:53 pm 18:53 Sunny 90 32.2 66 18.9 45 45 N 6 9 29.94 1014 10 16 0.00 0.00
7:53 pm 19:53 Sunny 89 31.7 64 17.8 43 43 N 5 7 29.94 1014 10 16 0.00 0.00
8:53 pm 20:53 Sunny 85 29.4 65 18.3 51 51 N 5 7 29.96 1014 10 16 0.00 0.00
9:53 pm 21:53 Clear 82 27.8 66 18.9 58 58 N 6 9 29.97 1015 10 16 0.00 0.00
10:53 pm 22:53 Clear 81 27.2 67 19.4 62 62 NE 6 9 29.99 1016 10 16 0.00 0.00
11:53 pm 23:53 Clear 78 25.6 67 19.4 69 69 NE 5 7 30.00 1016 10 16 0.00 0.00

Powered by AerisWeather